TimeCET,TemperatureF,Dew PointF,Humidity,Sea Level PressureIn,VisibilityMPH,Wind Direction,Wind SpeedMPH,Gust SpeedMPH,PrecipitationIn,Events,Conditions,WindDirDegrees,DateUTC
12:16 AM,44.6,39.2,81,29.18,6.2,SSW,10.4,-,N/A,,Overcast,210,2012-11-01 23:16:00
12:25 AM,44.6,39.2,81,29.18,6.2,SSW,11.5,-,N/A,,Mostly Cloudy,210,2012-11-01 23:25:00
12:29 AM,44.6,39.2,81,29.18,6.2,SSW,11.5,-,N/A,,Mostly Cloudy,210,2012-11-01 23:29:00
12:37 AM,44.6,39.2,81,29.18,6.2,SSW,11.5,-,N/A,,Mostly Cloudy,210,2012-11-01 23:37:00
12:48 AM,44.6,39.2,81,29.18,6.2,SSW,11.5,-,N/A,,Mostly Cloudy,210,2012-11-01 23:48:00
12:55 AM,44.6,39.2,81,29.18,6.2,SW,12.7,-,N/A,,Mostly Cloudy,220,2012-11-01 23:55:00
1:10 AM,44.6,39.2,81,29.21,6.2,SW,13.8,-,N/A,,Mostly Cloudy,220,2012-11-02 00:10:00
1:25 AM,44.6,39.2,81,29.21,6.2,SW,12.7,26.5,N/A,Rain,Light Rain,220,2012-11-02 00:25:00
1:29 AM,42.8,39.2,87,29.21,6.2,SW,12.7,24.2,N/A,Rain,Light Rain Showers,220,2012-11-02 00:29:00
1:33 AM,42.8,39.2,87,29.21,6.2,SW,12.7,24.2,N/A,Rain,Light Rain Showers,230,2012-11-02 00:33:00
1:37 AM,42.8,39.2,87,29.21,6.2,SW,11.5,-,N/A,Rain,Light Rain,230,2012-11-02 00:37:00
1:50 AM,42.8,41.0,93,29.21,6.2,SW,9.2,-,N/A,Rain,Light Rain,220,2012-11-02 00:50:00
1:55 AM,42.8,41.0,93,29.21,6.2,SW,10.4,-,N/A,Rain,Light Rain,220,2012-11-02 00:55:00
2:25 AM,41.0,39.2,93,29.24,6.2,SSW,11.5,-,N/A,,Overcast,210,2012-11-02 01:25:00
2:55 AM,41.0,37.4,87,29.24,6.2,SSW,13.8,-,N/A,,Scattered Clouds,210,2012-11-02 01:55:00
3:25 AM,41.0,37.4,87,29.27,6.2,SSW,11.5,-,N/A,,Scattered Clouds,210,2012-11-02 02:25:00
3:29 AM,41.0,39.2,93,29.27,6.2,SSW,11.5,-,N/A,,Mostly Cloudy,210,2012-11-02 02:29:00
3:30 AM,41.0,39.2,93,29.27,6.2,SW,11.5,-,N/A,,Mostly Cloudy,220,2012-11-02 02:30:00
3:55 AM,41.0,37.4,87,29.27,6.2,SW,13.8,-,N/A,,Partly Cloudy,220,2012-11-02 02:55:00
4:25 AM,41.0,37.4,87,29.27,6.2,SW,13.8,-,N/A,,Scattered Clouds,220,2012-11-02 03:25:00
4:44 AM,42.8,37.4,81,29.27,6.2,SW,16.1,-,N/A,,Partly Cloudy,220,2012-11-02 03:44:00
4:55 AM,42.8,37.4,81,29.30,6.2,SW,16.1,-,N/A,,Partly Cloudy,220,2012-11-02 03:55:00
5:25 AM,41.0,37.4,87,29.30,6.2,SW,12.7,-,N/A,,Unknown,220,2012-11-02 04:25:00
5:51 AM,42.8,37.4,81,29.30,6.2,SSW,15.0,-,N/A,,Scattered Clouds,210,2012-11-02 04:51:00
5:55 AM,42.8,37.4,81,29.30,6.2,SSW,13.8,25.3,N/A,,Mostly Cloudy,210,2012-11-02 04:55:00
5:58 AM,42.8,37.4,81,29.30,6.2,SSW,13.8,25.3,N/A,,Mostly Cloudy,210,2012-11-02 04:58:00
6:17 AM,41.0,37.4,87,29.30,6.2,SSW,13.8,-,N/A,,Mostly Cloudy,210,2012-11-02 05:17:00
6:25 AM,41.0,37.4,87,29.33,6.2,SSW,13.8,-,N/A,,Mostly Cloudy,210,2012-11-02 05:25:00
6:39 AM,42.8,37.4,81,29.30,6.2,SSW,15.0,-,N/A,,Partly Cloudy,210,2012-11-02 05:39:00
6:55 AM,42.8,37.4,81,29.30,6.2,SSW,13.8,25.3,N/A,,Scattered Clouds,210,2012-11-02 05:55:00
7:01 AM,42.8,37.4,81,29.33,6.2,SSW,13.8,-,N/A,,Scattered Clouds,210,2012-11-02 06:01:00
7:25 AM,42.8,37.4,81,29.33,6.2,SSW,15.0,-,N/A,,Overcast,210,2012-11-02 06:25:00
7:55 AM,42.8,37.4,81,29.33,6.2,SSW,16.1,-,N/A,,Overcast,210,2012-11-02 06:55:00
8:13 AM,42.8,37.4,81,29.33,6.2,SSW,15.0,-,N/A,,Mostly Cloudy,210,2012-11-02 07:13:00
8:25 AM,42.8,37.4,81,29.33,6.2,SSW,15.0,-,N/A,,Overcast,210,2012-11-02 07:25:00
8:38 AM,42.8,37.4,81,29.33,6.2,SW,16.1,-,N/A,,Mostly Cloudy,220,2012-11-02 07:38:00
8:49 AM,44.6,37.4,76,29.33,6.2,SSW,16.1,-,N/A,,Mostly Cloudy,210,2012-11-02 07:49:00
8:55 AM,44.6,37.4,76,29.36,6.2,SSW,16.1,-,N/A,,Mostly Cloudy,210,2012-11-02 07:55:00
9:00 AM,44.6,37.4,76,29.36,6.2,SW,16.1,-,N/A,,Mostly Cloudy,220,2012-11-02 08:00:00
9:06 AM,44.6,39.2,81,29.36,6.2,SSW,16.1,-,N/A,,Mostly Cloudy,210,2012-11-02 08:06:00
9:08 AM,44.6,39.2,81,29.36,6.2,SSW,16.1,-,N/A,,Overcast,210,2012-11-02 08:08:00
9:13 AM,44.6,39.2,81,29.36,6.2,SSW,17.3,-,N/A,,Overcast,210,2012-11-02 08:13:00
9:25 AM,44.6,39.2,81,29.36,6.2,SW,16.1,-,N/A,,Mostly Cloudy,220,2012-11-02 08:25:00
9:51 AM,46.4,39.2,76,29.36,6.2,SSW,15.0,-,N/A,,Mostly Cloudy,210,2012-11-02 08:51:00
9:55 AM,46.4,39.2,76,29.36,6.2,SW,15.0,-,N/A,,Mostly Cloudy,220,2012-11-02 08:55:00
10:01 AM,46.4,39.2,76,29.36,6.2,SW,12.7,24.2,N/A,,Overcast,220,2012-11-02 09:01:00
10:25 AM,46.4,37.4,71,29.36,6.2,SW,18.4,29.9,N/A,,Scattered Clouds,220,2012-11-02 09:25:00
10:39 AM,46.4,39.2,76,29.36,6.2,SW,15.0,-,N/A,,Mostly Cloudy,220,2012-11-02 09:39:00
10:55 AM,46.4,39.2,76,29.39,6.2,SW,15.0,28.8,N/A,,Mostly Cloudy,220,2012-11-02 09:55:00
11:13 AM,46.4,39.2,76,29.39,6.2,SSW,15.0,-,N/A,,Mostly Cloudy,210,2012-11-02 10:13:00
11:17 AM,46.4,39.2,76,29.39,6.2,SSW,15.0,-,N/A,,Mostly Cloudy,210,2012-11-02 10:17:00
11:25 AM,46.4,39.2,76,29.39,6.2,SSW,15.0,26.5,N/A,,Overcast,210,2012-11-02 10:25:00
11:55 AM,48.2,39.2,71,29.39,6.2,SSW,17.3,-,N/A,,Mostly Cloudy,210,2012-11-02 10:55:00
12:25 PM,48.2,39.2,71,29.39,6.2,SSW,17.3,28.8,N/A,,Scattered Clouds,210,2012-11-02 11:25:00
12:32 PM,48.2,39.2,71,29.39,6.2,SSW,18.4,-,N/A,,Scattered Clouds,210,2012-11-02 11:32:00
12:34 PM,48.2,39.2,71,29.39,6.2,SSW,18.4,-,N/A,,Scattered Clouds,210,2012-11-02 11:34:00
12:44 PM,50.0,39.2,66,29.39,6.2,SSW,16.1,-,N/A,,Overcast,210,2012-11-02 11:44:00
12:51 PM,48.2,39.2,71,29.39,6.2,SSW,18.4,31.1,N/A,,Overcast,200,2012-11-02 11:51:00
12:55 PM,48.2,39.2,71,29.36,6.2,SSW,17.3,31.1,N/A,,Mostly Cloudy,210,2012-11-02 11:55:00
1:25 PM,50.0,39.2,66,29.36,6.2,SSW,16.1,-,N/A,,Mostly Cloudy,210,2012-11-02 12:25:00
1:55 PM,51.8,39.2,62,29.36,6.2,SSW,15.0,-,N/A,,Scattered Clouds,210,2012-11-02 12:55:00
2:15 PM,51.8,39.2,62,29.36,6.2,SSW,15.0,-,N/A,,Mostly Cloudy,210,2012-11-02 13:15:00
2:25 PM,50.0,37.4,62,29.36,6.2,SSW,15.0,-,N/A,,Mostly Cloudy,210,2012-11-02 13:25:00
2:55 PM,50.0,39.2,66,29.36,6.2,SSW,13.8,-,N/A,,Overcast,200,2012-11-02 13:55:00
2:58 PM,50.0,39.2,66,29.36,4.3,SSW,13.8,-,N/A,,Haze,210,2012-11-02 13:58:00
3:04 PM,50.0,39.2,66,29.36,6.2,SSW,15.0,-,N/A,Rain,Light Rain,210,2012-11-02 14:04:00
3:17 PM,48.2,39.2,71,29.36,6.2,SSW,18.4,-,N/A,,Mostly Cloudy,200,2012-11-02 14:17:00
3:25 PM,48.2,41.0,76,29.36,6.2,SSW,17.3,-,N/A,,Mostly Cloudy,200,2012-11-02 14:25:00
3:29 PM,48.2,41.0,76,29.36,6.2,SSW,18.4,-,N/A,,Overcast,200,2012-11-02 14:29:00
3:47 PM,48.2,41.0,76,29.36,6.2,SSW,19.6,-,N/A,,Overcast,200,2012-11-02 14:47:00
3:55 PM,48.2,41.0,76,29.36,6.2,SSW,19.6,-,N/A,Rain,Light Rain,200,2012-11-02 14:55:00
4:20 PM,46.4,41.0,81,29.36,6.2,SSW,18.4,-,N/A,,Overcast,200,2012-11-02 15:20:00
4:25 PM,46.4,41.0,81,29.36,6.2,SSW,17.3,-,N/A,,Overcast,200,2012-11-02 15:25:00
4:46 PM,46.4,41.0,81,29.36,6.2,SSW,17.3,-,N/A,,Mostly Cloudy,200,2012-11-02 15:46:00
4:50 PM,44.6,42.8,93,29.36,6.2,SSW,17.3,-,N/A,,Mostly Cloudy,200,2012-11-02 15:50:00
4:55 PM,44.6,41.0,87,29.36,6.2,SSW,16.1,-,N/A,,Mostly Cloudy,200,2012-11-02 15:55:00
5:25 PM,44.6,41.0,87,29.36,6.2,South,12.7,-,N/A,,Mostly Cloudy,190,2012-11-02 16:25:00
5:55 PM,44.6,42.8,93,29.36,6.2,South,11.5,-,N/A,,Mostly Cloudy,190,2012-11-02 16:55:00
5:59 PM,44.6,42.8,93,29.36,6.2,SSW,10.4,-,N/A,,Mostly Cloudy,200,2012-11-02 16:59:00
6:05 PM,44.6,42.8,93,29.36,4.3,SSW,9.2,-,N/A,,Mostly Cloudy,210,2012-11-02 17:05:00
6:09 PM,42.8,41.0,93,29.36,6.2,SW,10.4,-,N/A,Rain,Rain Showers,230,2012-11-02 17:09:00
6:18 PM,42.8,39.2,87,29.36,5.0,West,10.4,-,N/A,Rain,Rain,270,2012-11-02 17:18:00
6:25 PM,42.8,39.2,87,29.36,5.0,West,6.9,-,N/A,Rain,Rain,260,2012-11-02 17:25:00
6:38 PM,42.8,41.0,93,29.36,6.2,SSW,5.8,-,N/A,Rain,Light Rain,200,2012-11-02 17:38:00
6:55 PM,41.0,41.0,100,29.36,6.2,SSW,6.9,-,N/A,,Mostly Cloudy,200,2012-11-02 17:55:00
7:25 PM,41.0,39.2,93,29.36,6.2,SSW,5.8,-,N/A,,Partly Cloudy,210,2012-11-02 18:25:00
7:55 PM,41.0,39.2,93,29.39,6.2,SSW,6.9,-,N/A,,Partly Cloudy,200,2012-11-02 18:55:00
8:25 PM,41.0,39.2,93,29.39,6.2,SSW,8.1,-,N/A,,Unknown,210,2012-11-02 19:25:00
8:55 PM,41.0,39.2,93,29.39,6.2,SSW,8.1,-,N/A,,Unknown,210,2012-11-02 19:55:00
9:25 PM,41.0,39.2,93,29.42,6.2,SSW,8.1,-,N/A,,Unknown,210,2012-11-02 20:25:00
9:55 PM,41.0,39.2,93,29.42,6.2,SSW,8.1,-,N/A,,Unknown,210,2012-11-02 20:55:00
10:25 PM,41.0,39.2,93,29.42,6.2,SW,9.2,-,N/A,,Mostly Cloudy,220,2012-11-02 21:25:00
10:55 PM,41.0,39.2,93,29.44,6.2,SW,9.2,-,N/A,,Mostly Cloudy,220,2012-11-02 21:55:00
11:25 PM,41.0,39.2,93,29.44,6.2,SW,9.2,-,N/A,,Overcast,220,2012-11-02 22:25:00
11:55 PM,41.0,39.2,93,29.47,6.2,SSW,9.2,-,N/A,,Mostly Cloudy,210,2012-11-02 22:55:00